[[{"header":{"parameterUnit":"m.s-1","parameterCategory":1,"la1":30.2991,"la2":30.254,"lo1":-89.0895,"lo2":-89.0444,"dy":0.0017,"dx":0.0017,"nx":28,"ny":28,"refTime":"2023-03-30T21:00:00:Z","depth":0,"parameterNumber":2,"parameterNumberName":"U-component_of_WINDS"},"data":[0,0,0,0,0,0,0,0,0,0,0,0,0,0,0,0,0,0,0,0,0,0,0,0,0,0,0,0,0,0,0,0,0,0,0,0,0,0,0,0,0,0,0,0,0,0,0,0,0,0,0,0,0,0,0,0,0,0,3.7929,3.7929,0,3.7992,3.7993,3.7994,3.7933,3.793,3.7928,3.7926,3.7994,3.7998,3.8002,0,0,0,0,0,0,0,0,0,0,0,0,0,3.7759,3.7762,3.7928,3.7929,3.793,3.7992,3.7993,3.7994,3.7933,3.793,3.7927,3.7925,3.7993,3.7998,3.8003,0,0,0,0,0,0,0,0,0,0,0,0,0,3.7829,3.7763,3.7928,3.7907,3.7906,3.7992,3.7993,3.7994,3.7934,3.793,3.7927,3.7923,3.7991,3.7997,3.8003,3.8114,0,0,3.8022,3.8025,0,0,0,0,0,0,0,0,3.7825,3.7835,3.791,3.7909,3.7908,3.7951,3.7958,3.8035,3.7935,3.7923,3.7926,3.7921,3.7983,3.799,3.801,3.8118,3.8121,3.8023,3.8026,3.8029,3.8031,0,0,0,0,0,0,0,3.782,3.7832,3.7954,3.7911,3.791,3.7896,3.7902,3.7972,3.7973,3.7924,3.792,3.7928,3.7982,3.8004,3.8011,3.8122,3.8023,3.8028,3.8032,3.8034,3.8326,3.833,0,0,0,0,0,0,3.7817,3.7828,3.7952,3.7956,3.7856,3.7902,3.7909,3.7941,3.7972,3.7973,3.7931,3.7925,3.7995,3.8004,3.8013,3.8147,3.8029,3.8035,3.8038,3.8322,3.8327,3.8332,0,0,0,0,0,0,3.7813,3.7828,3.7949,3.7891,3.7905,3.7909,3.7945,3.7944,3.7966,3.7977,3.7977,3.7953,3.7993,3.8004,3.809,3.8148,3.8038,3.8043,3.8317,3.8324,3.8329,3.8414,0,0,0,0,0,0,3.7809,3.7828,3.7869,3.7892,3.7908,3.8024,3.7949,3.7948,3.7976,3.7969,3.7998,3.8,3.7991,3.8081,3.8096,3.8155,3.8048,3.8312,3.832,3.8327,3.8406,3.8422,3.8436,0,0,0,0,0,3.7803,3.789,3.7871,3.7886,3.796,3.8027,3.8037,3.8024,3.7981,3.8023,3.8031,3.7999,3.8139,3.809,3.8107,3.8168,3.8309,3.8318,3.8327,3.8399,3.8419,3.8436,0,0,0,0,0,0,3.7874,3.7893,3.7872,3.7969,3.7997,3.8017,3.807,3.8045,3.8086,3.8078,3.8061,3.8068,3.8159,3.8172,3.8117,3.8278,3.8217,3.823,3.8267,3.8285,3.83,3.8296,3.8053,0,0,0,0,0,3.7901,3.7953,3.7967,3.8052,3.8067,3.8066,3.8095,3.8082,3.8111,3.8123,3.8137,3.8167,3.8218,3.8252,3.83,3.8407,3.8414,3.8458,3.8473,3.8485,3.8497,3.8556,3.8577,3.8362,3.8362,3.8361,0,0,3.7957,3.7974,3.8008,3.8066,3.8086,3.8143,3.8076,3.8138,3.818,3.8133,3.8215,3.8226,3.8259,3.8356,3.84,3.837,3.8557,3.8497,3.8506,3.8511,3.8568,3.8588,3.8606,3.8368,3.8367,3.8366,0,0,3.8089,3.8106,3.8179,3.8201,3.8232,3.8231,3.8249,3.8273,3.8279,3.836,3.8327,3.8377,3.8465,3.849,3.8515,3.8658,3.863,3.8674,3.8752,3.8811,3.8828,3.8843,3.8896,3.8915,3.8685,3.8685,3.8685,0,3.8155,3.8237,3.822,3.8284,3.8312,3.8271,3.8347,3.8369,3.8415,3.8435,3.8401,3.8511,3.853,3.8634,3.8669,3.8689,3.8711,3.867,3.8827,3.8841,3.8855,3.8905,3.8925,3.869,3.869,3.8689,3.8689,0,3.8318,3.8375,3.8431,3.8476,3.8509,3.8579,3.8574,3.8611,3.8596,3.8599,3.8684,3.8706,3.8758,3.8781,3.8767,3.8884,3.8865,3.8829,3.8767,3.8881,3.8928,3.8947,3.8698,3.8696,3.8694,3.8693,0,0,3.8495,3.8531,3.8552,3.8573,3.8605,3.865,3.8718,3.8768,3.8801,3.8834,3.8893,3.8969,3.8936,3.8964,3.8953,3.9004,3.9118,3.8962,3.8962,3.8991,3.925,3.9278,3.93,3.91,3.9103,3.9106,3.9248,0,3.8629,3.8747,3.8735,3.8848,3.8902,3.8865,3.8925,3.8953,3.8958,3.9006,3.9012,3.9067,3.9019,3.9036,3.9084,3.9094,3.917,3.9083,3.9156,3.9158,3.915,3.9324,3.9354,3.9486,3.9266,3.9269,3.9271,0,3.8801,3.884,3.8959,3.8984,3.9007,3.9061,3.9107,3.9152,3.9183,3.9184,3.9216,3.9196,3.9267,3.9203,3.9302,3.9243,3.9272,3.9281,3.9286,3.9293,3.9222,3.9338,3.9528,3.9549,3.9299,3.9297,3.9295,0,3.8921,3.9003,3.9085,3.9104,3.9136,3.9175,3.919,3.9217,3.9249,3.9289,3.931,3.9359,3.9386,3.9425,3.9419,3.9373,3.9521,3.9456,3.9525,3.9525,3.9558,3.9556,3.9757,3.9575,3.9575,3.9574,3.9574,0,3.9072,3.9147,3.914,3.9191,3.9274,3.9259,3.9342,3.9353,3.9378,3.9431,3.9402,3.9453,3.9442,3.9493,3.949,3.9573,3.9585,3.9589,3.9587,3.9592,3.9592,3.9612,3.9603,3.9579,3.9578,3.9577,3.9576,0,3.9221,3.9219,3.9306,3.9329,3.9337,3.9397,3.9417,3.9466,3.9469,3.9537,3.9552,3.9558,3.9617,3.9615,3.9682,3.968,3.9783,3.977,3.9772,3.977,3.9839,3.9833,4.0061,4.0091,3.9888,3.989,3.9892,0,3.9318,3.9374,3.9404,3.9437,3.9455,3.9508,3.9541,3.9529,3.9564,3.9605,3.9649,3.9705,3.9749,3.9846,3.9857,3.9908,3.9897,3.9974,3.9905,3.9909,3.99,3.9897,3.9904,3.9987,3.999,3.9991,3.9993,0,3.9491,3.9488,3.9535,3.9583,3.9622,3.9658,3.9692,3.9722,3.9714,3.9755,3.9815,3.9849,3.9918,3.9974,4.0024,4.0041,4.0017,4.0014,4.0033,4.0039,4.0039,4.0042,3.981,4.0009,4.0008,4.0007,4.0006,4.0005,3.9618,3.9667,3.9696,3.975,3.9774,3.9807,3.9854,3.9863,3.9913,3.9967,3.9958,4.0025,4.0056,4.012,4.0142,4.0196,4.0169,4.0196,4.0203,4.021,4.0218,4.003,4.0205,4.0204,4.0204,4.0203,4.0203,0,3.9792,3.9808,3.9858,3.9906,3.9949,3.9921,3.9958,3.9996,4.0055,4.0086,4.013,4.02,4.0255,4.0271,4.0324,4.0364,4.0355,4.0379,4.0376,4.0381,4.0239,4.0218,4.0386,4.0386,4.0386,4.0386,4.0386,4.0386,3.9887,3.9969,3.997,4.0064,4.0081,4.0146,4.0169,4.02,4.0225,4.0303,4.0349,4.0358,4.0384,4.0439,4.0489,4.0492,4.0514,4.0543,4.0542,4.0409,4.0391,4.0373,4.0354,4.0548,4.0548,4.068,4.0682,4.0683]},{"header":{"parameterUnit":"m.s-1","parameterCategory":1,"la1":30.2991,"la2":30.254,"lo1":-89.0895,"lo2":-89.0444,"dy":0.0017,"dx":0.0017,"nx":28,"ny":28,"refTime":"2023-03-30T21:00:00:Z","depth":0,"parameterNumber":3,"parameterNumberName":"V-component_of_WINDS"},"data":[0,0,0,0,0,0,0,0,0,0,0,0,0,0,0,0,0,0,0,0,0,0,0,0,0,0,0,0,0,0,0,0,0,0,0,0,0,0,0,0,0,0,0,0,0,0,0,0,0,0,0,0,0,0,0,0,0,0,3.1465,3.1466,0,3.159,3.1592,3.1593,3.1616,3.1615,3.1614,3.1613,3.1741,3.1745,3.175,0,0,0,0,0,0,0,0,0,0,0,0,0,3.1246,3.125,3.1465,3.1467,3.1468,3.159,3.1592,3.1593,3.1616,3.1615,3.1614,3.1613,3.174,3.1745,3.175,0,0,0,0,0,0,0,0,0,0,0,0,0,3.1353,3.1251,3.1465,3.1494,3.1498,3.159,3.1592,3.1594,3.1617,3.1615,3.1614,3.1612,3.1738,3.1744,3.1751,3.1821,0,0,3.1771,3.1773,0,0,0,0,0,0,0,0,3.1347,3.1361,3.1488,3.1492,3.1497,3.1586,3.1561,3.167,3.1617,3.1572,3.1613,3.1612,3.1691,3.1701,3.1728,3.1827,3.1833,3.1771,3.1775,3.1778,3.178,0,0,0,0,0,0,0,3.1339,3.1356,3.1514,3.149,3.1496,3.1501,3.1515,3.1582,3.1638,3.1576,3.1578,3.1592,3.1693,3.1721,3.1731,3.1835,3.1771,3.1777,3.1781,3.1783,3.1998,3.2,0,0,0,0,0,0,3.1327,3.1349,3.1511,3.1518,3.1417,3.1506,3.1522,3.1559,3.1638,3.1648,3.1593,3.1593,3.1711,3.1723,3.1736,3.1823,3.1778,3.1784,3.1788,3.1997,3.1999,3.2001,0,0,0,0,0,0,3.1322,3.1341,3.1505,3.1434,3.1456,3.1512,3.1554,3.1562,3.1591,3.1651,3.1661,3.1612,3.171,3.1726,3.18,3.1828,3.1787,3.1793,3.1994,3.1997,3.2,3.1999,0,0,0,0,0,0,3.1315,3.1339,3.1366,3.1435,3.1459,3.1568,3.1555,3.1566,3.1602,3.1603,3.1671,3.1681,3.171,3.179,3.1806,3.1836,3.1798,3.1992,3.1996,3.1999,3.1997,3.2002,3.2006,0,0,0,0,0,3.1307,3.1361,3.1368,3.1387,3.1495,3.1569,3.1583,3.1616,3.1604,3.1632,3.1671,3.1679,3.1822,3.1797,3.1816,3.1848,3.199,3.1995,3.1999,3.1995,3.2001,3.2006,0,0,0,0,0,0,3.1294,3.1371,3.1379,3.1456,3.1506,3.1573,3.1609,3.1621,3.1675,3.1673,3.1711,3.1726,3.1798,3.183,3.1801,3.1921,3.1906,3.1914,3.1897,3.1903,3.1907,3.1897,3.1803,0,0,0,0,0,3.13,3.1355,3.1418,3.148,3.1505,3.1553,3.1587,3.1607,3.166,3.1682,3.1726,3.1777,3.1833,3.187,3.1925,3.2002,3.2017,3.2034,3.2038,3.2041,3.2047,3.2091,3.2099,3.2014,3.2014,3.2014,0,0,3.1313,3.1362,3.1394,3.1479,3.152,3.1575,3.1571,3.1629,3.167,3.1691,3.1763,3.1797,3.1856,3.1932,3.1967,3.1961,3.2074,3.2046,3.2048,3.2053,3.2096,3.2104,3.2111,3.2017,3.2016,3.2016,0,0,3.1366,3.1408,3.1464,3.1506,3.1568,3.16,3.1613,3.1679,3.1702,3.1775,3.1792,3.1841,3.1938,3.198,3.2014,3.2082,3.2091,3.2099,3.2121,3.2163,3.2169,3.2176,3.22,3.2208,3.2105,3.2105,3.2105,0,3.1374,3.1458,3.1492,3.155,3.1587,3.1608,3.1665,3.1704,3.1781,3.1806,3.1798,3.192,3.1962,3.2048,3.2064,3.2091,3.2108,3.2091,3.2166,3.2172,3.2178,3.2202,3.2211,3.2105,3.2105,3.2105,3.2105,0,3.1465,3.1523,3.1561,3.1635,3.1677,3.1734,3.1777,3.1814,3.1832,3.1864,3.1938,3.1989,3.2055,3.2077,3.2094,3.2165,3.2159,3.2158,3.2144,3.2186,3.2209,3.2219,3.2106,3.2106,3.2106,3.2106,0,0,3.1512,3.1605,3.1618,3.1652,3.1723,3.1768,3.1827,3.1891,3.1923,3.1976,3.2026,3.2107,3.2107,3.2145,3.2167,3.2204,3.2255,3.2198,3.22,3.2207,3.2336,3.2336,3.2346,3.2261,3.2263,3.2265,3.2331,0,3.1572,3.1677,3.171,3.1798,3.1852,3.1873,3.1924,3.1972,3.2004,3.2054,3.2089,3.2146,3.2142,3.2165,3.2202,3.224,3.2281,3.2236,3.2308,3.231,3.2292,3.2358,3.2358,3.2418,3.234,3.2341,3.2342,0,3.1657,3.1711,3.1805,3.1869,3.1893,3.1938,3.2,3.2048,3.2104,3.2124,3.2167,3.2186,3.2248,3.223,3.2315,3.2284,3.2316,3.2339,3.2342,3.235,3.2329,3.2367,3.2438,3.2447,3.2357,3.2356,3.2355,0,3.1682,3.1778,3.1847,3.1875,3.1952,3.1983,3.2016,3.2071,3.2108,3.2162,3.2186,3.2247,3.228,3.2326,3.2361,3.2345,3.2444,3.2429,3.2462,3.2461,3.2482,3.248,3.2558,3.2502,3.2502,3.2502,3.2502,0,3.1746,3.1802,3.1859,3.1901,3.1965,3.2001,3.2063,3.2097,3.2146,3.2195,3.2216,3.2262,3.2305,3.2357,3.2384,3.2451,3.2466,3.2484,3.249,3.2482,3.2479,3.2503,3.2499,3.2504,3.2504,3.2503,3.2503,0,3.1784,3.1824,3.19,3.1967,3.1985,3.2029,3.2085,3.2127,3.216,3.2221,3.2238,3.2289,3.235,3.239,3.2468,3.2487,3.2559,3.2565,3.2541,3.2544,3.2575,3.2571,3.2671,3.2686,3.262,3.262,3.2621,0,3.1822,3.1866,3.1937,3.1972,3.2005,3.206,3.2098,3.2136,3.2175,3.2242,3.2275,3.2338,3.239,3.2487,3.2531,3.2591,3.2598,3.2629,3.2608,3.2597,3.2599,3.2596,3.26,3.2632,3.2633,3.2633,3.2634,0,3.1885,3.1903,3.1957,3.2018,3.2063,3.2113,3.2163,3.219,3.2237,3.2279,3.2342,3.2383,3.2463,3.2525,3.2589,3.2623,3.2636,3.264,3.2651,3.2643,3.2627,3.2636,3.255,3.2638,3.2637,3.2637,3.2637,3.2637,3.1924,3.1964,3.2021,3.208,3.2122,3.2168,3.2211,3.2249,3.2302,3.2371,3.239,3.2456,3.251,3.2598,3.2633,3.2685,3.2681,3.2697,3.2701,3.2704,3.2704,3.2619,3.2697,3.2697,3.2697,3.2697,3.2697,0,3.1988,3.2026,3.208,3.215,3.2197,3.2206,3.2262,3.23,3.2358,3.2408,3.2459,3.2532,3.2592,3.2641,3.2703,3.2735,3.2743,3.275,3.2748,3.2756,3.2704,3.2689,3.2743,3.2743,3.2743,3.2743,3.2743,3.2743,3.2027,3.2095,3.212,3.2209,3.2246,3.2311,3.2343,3.2385,3.2426,3.2506,3.2556,3.2588,3.2638,3.2704,3.2759,3.2772,3.2794,3.28,3.2814,3.2765,3.276,3.2755,3.274,3.2804,3.2805,3.2861,3.2862,3.2862]}]]